Nellis AFB, NV

3:26 AM PDT on April 28, 2017 (GMT -0700)
Nellis Air Force Base

Weather History for KLSV - August, 2013

Change the Weather History Date:

Thursday, August 22, 2013

  Actual Average Record
Temperature  
Mean Temperature 92 °F -  
Max Temperature 102 °F 101 °F 107 °F (1998)
Min Temperature 83 °F 75 °F 66 °F (2016)
Cooling Degree Days 27    
Growing Degree Days 42 (Base 50)    
Moisture  
Dew Point 49 °F    
Average Humidity 23    
Maximum Humidity 31    
Minimum Humidity 15    
Precipitation  
Precipitation 0.00 in - - ()
Sea Level Pressure  
Sea Level Pressure 29.80 in    
Wind  
Wind Speed 6 mph (SE)    
Max Wind Speed 13 mph    
Max Gust Speed -    
Visibility 10 miles    
Events      
Averages and records for this station are not official NWS values.
T = Trace of Precipitation, MM = Missing Value Source: NWS Daily Summary

Daily Weather History Graph

Daily Weather History Graph

Search for Another Location

Airport or City:

Trip Planner

Search our weather history database for the weather conditions in past years. The results will help you decide how hot, cold, wet, or windy it might be!

Date:

Astronomy

Aug. 22, 2013 Rise Set
Actual Time 6:04 AM PDT 7:21 PM PDT
Civil Twilight 5:37 AM PDT 7:47 PM PDT
Nautical Twilight 5:05 AM PDT 8:19 PM PDT
Astronomical Twilight 4:31 AM PDT 8:53 PM PDT
Moon 8:13 PM PDT (8/22) 7:52 AM PDT (8/22)
Length of Visible Light 14h 10m
Length of Day
13h 17m
Waning Gibbous, 96% of the Moon is Illuminated
Aug 22
Waning Gibbous
Aug 28
Last Quarter
Sep 5
New
Sep 12
First Quarter
Sep 19
Full

Hourly Weather History & Observations

Time (PDT) Temp. Heat Index Dew Point Humidity Pressure Visibility Wind Dir Wind Speed Gust Speed Precip Events Conditions
12:58 AM 91.9 °F - 46.6 °F 21% 29.80 in 10.0 mi NNE 1.2 mph - N/A   Mostly Cloudy
1:58 AM 91.6 °F - 49.3 °F 23% 29.79 in 10.0 mi SSW 4.6 mph - N/A   Mostly Cloudy
2:58 AM 90.1 °F - 49.8 °F 25% 29.81 in 10.0 mi NNE 10.4 mph - N/A   Mostly Cloudy
3:58 AM 88.0 °F - 50.5 °F 28% 29.81 in 10.0 mi NE 6.9 mph - N/A   Clear
4:58 AM 84.7 °F - 48.7 °F 29% 29.82 in 10.0 mi NE 6.9 mph - N/A   Clear
5:58 AM 83.8 °F - 49.8 °F 31% 29.83 in 10.0 mi ENE 12.7 mph - N/A   Clear
6:58 AM 85.8 °F - 51.4 °F 30% 29.85 in 10.0 mi ENE 5.8 mph - N/A   Partly Cloudy
7:58 AM 89.6 °F - 50.9 °F 26% 29.85 in 10.0 mi East 6.9 mph - N/A   Clear
8:58 AM 91.2 °F - 50.7 °F 25% 29.86 in 10.0 mi ESE 4.6 mph - N/A   Overcast
9:58 AM 94.6 °F - 52.0 °F 23% 29.86 in 10.0 mi ESE 5.8 mph - N/A   Mostly Cloudy
10:58 AM 96.6 °F - 48.6 °F 19% 29.86 in 10.0 mi ESE 4.6 mph - N/A   Clear
11:58 AM 98.1 °F - 46.9 °F 18% 29.84 in 10.0 mi Variable 2.3 mph - N/A   Clear
12:58 PM 100.4 °F - 45.9 °F 16% 29.81 in 10.0 mi Variable 1.2 mph - N/A   Clear
1:58 PM 101.1 °F - 45.1 °F 15% 29.78 in 10.0 mi SW 10.4 mph - N/A   Clear
2:58 PM 100.0 °F - 48.6 °F 17% 29.77 in 10.0 mi SE 11.5 mph - N/A   Clear
3:58 PM 99.0 °F - 50.9 °F 20% 29.74 in 10.0 mi SSE 12.7 mph - N/A   Partly Cloudy
4:58 PM 96.8 °F - 47.3 °F 18% 29.74 in 10.0 mi South 12.7 mph - N/A   Clear
6:58 PM 94.5 °F - 49.6 °F 22% 29.74 in 10.0 mi WSW 5.8 mph - N/A   Clear
7:58 PM 93.7 °F - 48.9 °F 22% 29.75 in 10.0 mi West 4.6 mph - N/A   Partly Cloudy
8:58 PM 91.4 °F - 50.5 °F 25% 29.78 in 10.0 mi SW 8.1 mph - N/A   Mostly Cloudy
9:58 PM 89.4 °F - 50.9 °F 27% 29.79 in 10.0 mi ESE 4.6 mph - N/A   Scattered Clouds
10:58 PM 90.3 °F 88.1 °F 53.6 °F 29% 29.79 in 10.0 mi SSW 9.2 mph - N/A   Mostly Cloudy
11:58 PM 89.6 °F - 50.0 °F 26% 29.80 in 10.0 mi South 10.4 mph - N/A   Mostly Cloudy